This is the latest recevied weather packets stored in our database for station/object WX4ET. If no packets are shown the sender has not sent any weather packets the latest 10 day(s).
| Time | Temp. | Humidity | Pressure | Rain* | Wind** | Luminosity | Snow |
|---|---|---|---|---|---|---|---|
| 1777722150 | 9.44° C | 66% | 1010.5 hPa | 0 mm | - | 39 W/m² | - |
| 1777721847 | 9.44° C | 68% | 1010.1 hPa | 0 mm | - | 35 W/m² | - |
| 1777721545 | 9.44° C | 66% | 1010.3 hPa | 0 mm | - | 28 W/m² | - |
| 1777721243 | 9.44° C | 66% | 1010.2 hPa | 0 mm | - | 26 W/m² | - |
| 1777720940 | 9.44° C | 66% | 1010.5 hPa | 0 mm | - | 19 W/m² | - |
| 1777720637 | 9.44° C | 66% | 1010.5 hPa | 0 mm | - | 15 W/m² | - |
| 1777720335 | 9.44° C | 66% | 1010.4 hPa | 0 mm | - | 23 W/m² | - |
| 1777720032 | 9.44° C | 65% | 1010.3 hPa | 0 mm | - | 14 W/m² | - |
| 1777719729 | 9.44° C | 67% | 1010.3 hPa | 0 mm | - | 11 W/m² | - |
| 1777719427 | 9.44° C | 66% | 1010.2 hPa | 0 mm | - | 8 W/m² | - |
| 1777719123 | 9.44° C | 67% | 1010.2 hPa | 0 mm | - | 5 W/m² | - |
| 1777718821 | 9.44° C | 66% | 1010.1 hPa | 0 mm | - | 3 W/m² | - |
| 1777718518 | 9.44° C | 68% | 1010 hPa | 0 mm | - | 1 W/m² | - |
| 1777718216 | 9.44° C | 68% | 1010.2 hPa | 0 mm | - | 0 W/m² | - |
| 1777717914 | 9.44° C | 71% | 1010 hPa | 0 mm | - | 0 W/m² | - |
| 1777717610 | 9.44° C | 70% | 1010 hPa | 0 mm | - | 0 W/m² | - |
| 1777717307 | 9.44° C | 71% | 1010 hPa | 0 mm | - | 0 W/m² | - |
| 1777717005 | 9.44° C | 71% | 1010.1 hPa | 0 mm | - | 0 W/m² | - |
| 1777716703 | 9.44° C | 70% | 1010.1 hPa | 0 mm | - | 0 W/m² | - |
| 1777716401 | 9.44° C | 71% | 1009.9 hPa | 0 mm | - | 0 W/m² | - |
| 1777716099 | 10° C | 70% | 1009.9 hPa | 0 mm | - | 0 W/m² | - |
| 1777715797 | 10° C | 71% | 1010.1 hPa | 0 mm | - | 0 W/m² | - |
| 1777715494 | 10° C | 71% | 1009.9 hPa | 0 mm | - | 0 W/m² | - |
| 1777715191 | 10° C | 70% | 1009.9 hPa | 0 mm | - | 0 W/m² | - |
| 1777714889 | 10° C | 72% | 1009.8 hPa | 0 mm | - | 0 W/m² | - |
* Rain latest hour (hover to see other rain measurements)
** Current wind speed in m/s (hover to see current wind gust speed)